Find Starlink 32916

NORAD ID: 62922 Int'l Des: 2025-027 Owner: SPXS Country: US Constellation: starlink operational
LEOCIRCULAR

Live Position

Loading 3D Globe...

About Starlink 32916

Description loading...

Upcoming Passes

Passes for default location (London). Set your location on the main map for personalized predictions.

Altitude History

Loading altitude history...

Two-Line Element Set

1 62922U 25027R 26125.51306119 .00031076 00000-0 11349-2 0 9996
2 62922 43.0019 167.8789 0001788 276.0570 84.0078 15.27553867 70235
Epoch: May 5, 2026 • Age: 8 hours

Current Status

Altitude 482.2 km
Velocity 7.63 km/s
Sub-Earth Point 9.90°N, 9.69°E
Launch Date Feb 8, 2025
Age 1.2 years
Type internet

Technical Details

Classification Payload
Mass 730.00 kg
Dry Mass 700.00 kg
Total Mass 730.00 kg
Length 0.30 m
Diameter 4.10 m
Span 29.00 m
Shape Box + pan
Manufacturer SPXS
Bus Type Starlink V2M
Phase Status In Orbit
Owner/State SPXS/US

Most Searched